Temp
-11 -11 -11 -11 -11 -11 -11 -11 -11 -11 -11 -11 -11 -11 -11 -11 -11 -11 -11 -10 -10 -10 -10 -10 -10 -10 -10 -10 -10 -9 -9 -9 -9 -10 -10 -10 -10 -10 -10 -10 -10 -10 -10 -9 -9 -9 -9 -9 -9 -9 -9 -9 -9 -9 -9 -8 -8 -8 -8 -8 -8 -8 -8 -8 -7 -7 -7 -7 -6
-11 -11 -11 -11 -11 -11 -11 -11 -11 -11 -11 -11 -11 -11 -11 -11 -11 -11 -11 -10 -10 -10 -10 -10 -10 -10 -10 -10 -9 -9 -9 -10 -10 -10 -10 -10 -10 -10 -10 -10 -10 -10 -10 -10 -9 -9 -9 -9 -9 -9 -9 -9 -9 -9 -9 -9 -9 -8 -8 -8 -8 -8 -8 -7 -7 -7 -7 -6 -6
-11 -11 -11 -11 -11 -11 -11 -11 -11 -11 -11 -11 -11 -11 -11 -11 -11 -11 -10 -10 -10 -10 -10 -10 -10 -10 -10 -9 -9 -10 -10 -10 -10 -10 -10 -10 -10 -10 -10 -10 -10 -10 -10 -10 -9 -9 -9 -9 -9 -9 -9 -9 -9 -9 -9 -9 -9 -8 -8 -8 -8 -8 -7 -7 -7 -7 -7 -6 -6
-11 -11 -11 -11 -11 -11 -11 -11 -11 -11 -11 -11 -11 -11 -11 -11 -11 -10 -10 -10 -10 -10 -10 -10 -10 -10 -9 -9 -10 -10 -10 -10 -10 -10 -10 -10 -10 -10 -10 -10 -10 -10 -10 -10 -9 -9 -9 -9 -9 -9 -9 -9 -9 -9 -9 -9 -9 -8 -8 -8 -8 -8 -7 -7 -7 -7 -7 -7 -7
-11 -11 -11 -11 -11 -11 -11 -11 -11 -11 -11 -11 -11 -11 -11 -11 -10 -10 -10 -10 -10 -10 -10 -10 -10 -9 -9 -10 -10 -10 -10 -10 -10 -10 -10 -10 -10 -10 -10 -10 -10 -10 -10 -10 -9 -9 -9 -9 -9 -9 -9 -9 -9 -9 -9 -9 -9 -8 -8 -8 -8 -8 -7 -7 -7 -7 -7 -7 -7
-11 -11 -11 -11 -11 -11 -11 -11 -11 -11 -11 -11 -11 -11 -10 -10 -10 -10 -10 -10 -10 -10 -10 -9 -9 -9 -9 -10 -10 -10 -10 -10 -9 -9 -10 -9 -9 -9 -9 -9 -9 -9 -9 -9 -9 -9 -9 -9 -9 -9 -9 -9 -9 -9 -9 -9 -9 -9 -8 -8 -8 -8 -8 -8 -7 -7 -7 -7 -7
-11 -11 -11 -11 -11 -11 -11 -11 -11 -11 -11 -11 -10 -10 -10 -10 -10 -10 -10 -10 -10 -10 -9 -9 -9 -9 -10 -10 -10 -10 -9 -9 -9 -9 -9 -9 -9 -9 -9 -9 -9 -9 -9 -9 -9 -9 -9 -9 -9 -9 -9 -9 -9 -9 -9 -9 -9 -9 -9 -8 -8 -8 -8 -8 -8 -8 -7 -7 -7
-11 -11 -11 -11 -11 -11 -11 -11 -10 -10 -10 -10 -10 -10 -10 -10 -10 -10 -10 -10 -10 -9 -9 -9 -9 -9 -10 -10 -9 -9 -9 -9 -9 -9 -9 -9 -9 -9 -9 -9 -9 -9 -9 -9 -9 -9 -9 -9 -9 -9 -9 -9 -9 -9 -9 -9 -9 -9 -9 -9 -9 -8 -8 -8 -8 -8 -7 -7 -7
-11 -11 -11 -11 -11 -11 -11 -10 -10 -10 -10 -10 -10 -10 -10 -10 -10 -10 -10 -10 -9 -9 -9 -9 -9 -9 -9 -9 -9 -9 -9 -9 -9 -9 -9 -9 -9 -9 -9 -9 -9 -9 -9 -9 -9 -9 -9 -9 -9 -9 -9 -9 -9 -9 -9 -9 -9 -9 -9 -9 -9 -9 -8 -8 -8 -8 -8 -8 -7
-11 -11 -11 -11 -11 -11 -10 -10 -10 -10 -10 -10 -10 -10 -10 -10 -10 -10 -10 -9 -9 -9 -9 -9 -9 -9 -9 -9 -9 -9 -9 -9 -9 -9 -9 -9 -9 -9 -9 -9 -9 -9 -9 -9 -9 -9 -9 -9 -9 -9 -9 -9 -9 -9 -9 -9 -9 -9 -9 -9 -9 -8 -8 -8 -8 -8 -8 -8 -7
-11 -11 -11 -11 -11 -10 -10 -10 -10 -10 -10 -10 -10 -10 -10 -10 -9 -9 -9 -9 -9 -9 -9 -9 -9 -9 -9 -9 -9 -9 -9 -9 -9 -9 -9 -9 -9 -9 -9 -9 -9 -9 -9 -9 -9 -9 -9 -9 -9 -9 -9 -9 -9 -9 -9 -9 -9 -9 -9 -9 -9 -8 -8 -8 -8 -8 -8 -7 -7
-11 -11 -11 -11 -11 -10 -10 -10 -10 -10 -10 -10 -10 -10 -9 -9 -9 -9 -9 -9 -10 -10 -9 -9 -9 -9 -9 -9 -9 -9 -9 -9 -9 -9 -9 -9 -9 -9 -9 -9 -9 -9 -9 -9 -9 -9 -9 -9 -9 -9 -9 -9 -9 -9 -9 -9 -9 -9 -9 -9 -9 -8 -8 -8 -8 -8 -8 -7 -7
-11 -11 -11 -11 -10 -10 -10 -10 -10 -10 -10 -10 -10 -9 -9 -9 -9 -9 -9 -9 -10 -10 -9 -9 -9 -9 -9 -9 -9 -9 -9 -9 -9 -9 -9 -9 -9 -9 -9 -9 -9 -9 -9 -9 -9 -9 -9 -9 -9 -9 -9 -9 -9 -9 -9 -9 -9 -9 -9 -9 -8 -8 -8 -8 -8 -8 -7 -7 -7
-11 -11 -11 -10 -10 -10 -10 -10 -10 -10 -10 -10 -10 -9 -9 -9 -9 -9 -9 -10 -10 -10 -9 -9 -9 -9 -9 -9 -9 -9 -9 -9 -9 -9 -9 -9 -9 -9 -9 -9 -9 -9 -9 -9 -9 -9 -9 -9 -9 -9 -9 -9 -9 -9 -9 -9 -8 -8 -8 -8 -8 -8 -8 -8 -8 -7 -7 -7 -6
-11 -11 -11 -10 -10 -10 -10 -10 -10 -10 -10 -10 -9 -9 -9 -9 -9 -9 -10 -10 -10 -9 -9 -9 -9 -9 -9 -9 -9 -9 -9 -9 -9 -9 -9 -9 -9 -9 -9 -9 -9 -9 -9 -9 -9 -9 -9 -9 -8 -8 -8 -8 -8 -8 -8 -8 -8 -8 -8 -8 -8 -8 -8 -7 -7 -7 -6 -6 -5
-11 -11 -10 -10 -10 -10 -10 -10 -10 -10 -10 -10 -9 -9 -9 -9 -9 -9 -9 -10 -9 -9 -9 -9 -9 -9 -9 -9 -9 -9 -9 -9 -9 -9 -9 -9 -9 -9 -9 -9 -9 -9 -8 -8 -8 -8 -8 -8 -8 -8 -8 -8 -8 -8 -8 -8 -8 -8 -8 -8 -8 -7 -7 -7 -6 -6 -5 -5 -5
-10 -10 -10 -10 -10 -10 -10 -10 -10 -10 -10 -9 -9 -9 -9 -9 -9 -9 -9 -9 -9 -9 -9 -9 -9 -9 -9 -9 -9 -9 -9 -9 -9 -9 -9 -9 -9 -9 -9 -8 -8 -8 -7 -7 -7 -7 -7 -7 -7 -8 -8 -8 -8 -8 -8 -7 -7 -7 -7 -7 -7 -7 -6 -6 -5 -5 -4 -4 -4
-10 -10 -10 -10 -10 -10 -10 -10 -10 -10 -9 -9 -9 -9 -9 -9 -9 -9 -9 -9 -9 -9 -9 -9 -9 -9 -9 -9 -9 -9 -9 -9 -9 -9 -9 -9 -9 -8 -8 -8 -7 -7 -6 -6 -6 -6 -6 -6 -6 -7 -7 -7 -7 -7 -7 -7 -7 -7 -7 -6 -6 -5 -5 -5 -5 -4 -4 -4 -4
-10 -10 -10 -10 -10 -10 -10 -10 -9 -9 -9 -9 -9 -9 -9 -9 -9 -9 -9 -9 -9 -9 -9 -9 -9 -9 -9 -9 -9 -9 -9 -9 -9 -8 -8 -8 -8 -8 -8 -7 -7 -6 -5 -6 -6 -6 -6 -6 -6 -6 -6 -6 -6 -6 -6 -6 -6 -6 -6 -6 -5 -5 -5 -5 -5 -5 -5 -5 -5
-10 -10 -10 -10 -10 -10 -10 -9 -9 -9 -9 -9 -9 -9 -9 -9 -9 -9 -9 -9 -9 -9 -9 -9 -9 -9 -9 -9 -9 -9 -9 -9 -9 -8 -8 -8 -8 -8 -7 -7 -6 -5 -5 -6 -6 -6 -6 -6 -6 -6 -6 -6 -6 -6 -6 -6 -6 -6 -6 -5 -5 -5 -5 -5 -5 -5 -5 -5 -5
-10 -10 -10 -10 -10 -10 -9 -9 -9 -9 -9 -9 -9 -9 -9 -9 -9 -9 -9 -9 -9 -9 -9 -9 -9 -9 -9 -9 -9 -9 -9 -9 -8 -8 -8 -8 -8 -7 -7 -7 -6 -5 -5 -6 -6 -6 -6 -6 -7 -7 -6 -6 -6 -6 -6 -6 -6 -6 -6 -5 -5 -5 -5 -5 -5 -5 -5 -5 -5
-10 -10 -10 -10 -10 -9 -9 -9 -9 -9 -9 -9 -9 -9 -9 -9 -9 -9 -9 -9 -9 -9 -9 -9 -9 -9 -9 -9 -9 -9 -8 -8 -8 -8 -8 -8 -7 -7 -7 -6 -5 -4 -4 -5 -6 -6 -6 -7 -7 -7 -7 -7 -7 -6 -6 -6 -6 -5 -5 -5 -5 -5 -5 -5 -5 -5 -5 -5 -5
-10 -10 -10 -10 -9 -9 -9 -9 -9 -9 -9 -9 -9 -8 -8 -8 -9 -9 -9 -9 -8 -8 -9 -9 -9 -9 -9 -9 -9 -8 -8 -8 -8 -8 -8 -8 -7 -7 -6 -6 -5 -4 -4 -4 -5 -5 -6 -6 -6 -7 -7 -6 -6 -6 -6 -6 -6 -6 -5 -5 -5 -5 -5 -5 -5 -5 -5 -5 -5
-9 -10 -10 -9 -9 -9 -9 -9 -9 -9 -9 -9 -8 -8 -8 -8 -8 -9 -9 -8 -8 -8 -8 -9 -9 -9 -9 -8 -8 -8 -8 -8 -8 -8 -8 -8 -7 -7 -6 -6 -5 -5 -4 -4 -4 -5 -5 -6 -6 -6 -7 -7 -7 -6 -6 -6 -6 -6 -6 -6 -6 -6 -6 -5 -5 -5 -5 -5 -5
-9 -9 -9 -9 -9 -9 -9 -9 -9 -9 -8 -8 -8 -8 -8 -8 -8 -9 -9 -8 -8 -8 -8 -9 -9 -9 -9 -8 -8 -8 -8 -8 -8 -8 -8 -8 -7 -7 -6 -6 -5 -5 -4 -4 -4 -4 -5 -6 -6 -7 -7 -7 -7 -7 -7 -7 -7 -7 -7 -7 -7 -7 -7 -6 -6 -5 -5 -5 -5
-9 -9 -9 -9 -9 -9 -9 -9 -8 -8 -8 -8 -8 -8 -8 -8 -8 -9 -9 -9 -8 -8 -8 -8 -9 -9 -9 -8 -8 -8 -8 -8 -8 -8 -8 -8 -7 -7 -7 -6 -6 -5 -4 -4 -4 -4 -5 -5 -6 -7 -7 -7 -8 -8 -8 -8 -8 -8 -8 -8 -8 -8 -8 -7 -7 -6 -6 -5 -5
-9 -9 -9 -9 -9 -9 -9 -8 -8 -8 -8 -8 -8 -8 -8 -8 -8 -9 -9 -9 -8 -8 -8 -8 -9 -9 -9 -9 -8 -8 -8 -8 -8 -8 -8 -8 -8 -7 -7 -6 -6 -5 -4 -4 -4 -4 -5 -5 -6 -6 -7 -7 -7 -8 -8 -8 -8 -8 -8 -8 -8 -8 -8 -8 -8 -7 -7 -6 -6
-9 -9 -9 -9 -9 -9 -8 -8 -8 -8 -8 -8 -8 -8 -8 -8 -8 -9 -9 -9 -8 -8 -8 -8 -9 -9 -8 -8 -8 -8 -8 -8 -8 -8 -8 -8 -8 -7 -7 -7 -6 -5 -4 -4 -4 -4 -5 -5 -5 -6 -7 -7 -7 -8 -8 -8 -8 -8 -8 -8 -8 -8 -8 -8 -8 -8 -7 -7 -6
-9 -9 -9 -9 -9 -8 -8 -8 -8 -8 -8 -8 -8 -8 -8 -8 -8 -8 -9 -9 -8 -8 -8 -9 -9 -8 -8 -8 -8 -8 -8 -8 -8 -8 -8 -8 -7 -7 -7 -7 -6 -5 -4 -4 -4 -5 -5 -5 -6 -6 -7 -7 -7 -7 -8 -8 -8 -8 -8 -8 -8 -8 -8 -8 -8 -8 -8 -7 -7
-9 -9 -9 -9 -8 -8 -8 -8 -8 -8 -8 -8 -8 -8 -8 -8 -8 -8 -9 -9 -8 -8 -9 -9 -8 -8 -8 -8 -8 -8 -8 -8 -8 -8 -8 -7 -7 -7 -7 -7 -7 -5 -4 -4 -5 -5 -5 -5 -6 -6 -7 -7 -7 -7 -7 -8 -8 -8 -8 -8 -8 -8 -8 -8 -8 -8 -8 -8 -7
-8 -9 -9 -8 -8 -8 -8 -8 -8 -8 -8 -8 -8 -8 -8 -8 -8 -9 -9 -9 -9 -8 -8 -8 -8 -8 -8 -8 -8 -8 -8 -8 -8 -7 -7 -7 -7 -7 -7 -7 -7 -6 -5 -4 -5 -5 -5 -5 -6 -6 -7 -7 -7 -7 -7 -7 -8 -8 -8 -8 -8 -8 -8 -8 -8 -8 -8 -8 -7
-8 -8 -8 -8 -8 -8 -8 -8 -8 -8 -8 -8 -8 -8 -8 -8 -8 -8 -9 -9 -9 -8 -8 -8 -8 -8 -8 -8 -8 -8 -8 -8 -7 -7 -7 -7 -7 -7 -7 -7 -7 -6 -5 -5 -5 -5 -5 -6 -6 -6 -7 -7 -7 -7 -7 -7 -7 -8 -8 -8 -8 -8 -8 -8 -8 -8 -8 -8 -7
-8 -8 -8 -8 -8 -8 -8 -8 -8 -8 -8 -8 -8 -8 -8 -8 -8 -8 -8 -9 -9 -9 -9 -9 -9 -8 -8 -8 -8 -8 -8 -8 -7 -7 -7 -7 -7 -7 -7 -7 -7 -6 -5 -5 -5 -5 -5 -6 -6 -6 -7 -7 -7 -7 -7 -7 -8 -8 -8 -8 -8 -8 -8 -8 -8 -8 -8 -7 -7
-8 -8 -8 -8 -8 -8 -8 -8 -8 -8 -8 -8 -8 -8 -8 -8 -8 -8 -8 -9 -9 -8 -8 -8 -8 -8 -8 -8 -8 -8 -8 -8 -7 -7 -7 -7 -7 -7 -7 -7 -7 -7 -6 -5 -5 -5 -5 -6 -6 -6 -7 -7 -7 -7 -7 -7 -7 -8 -8 -8 -8 -8 -8 -8 -8 -8 -7 -7 -7
-8 -8 -8 -8 -8 -8 -8 -8 -8 -8 -8 -8 -8 -8 -8 -8 -8 -8 -8 -9 -8 -8 -8 -8 -8 -8 -8 -8 -8 -8 -8 -7 -7 -7 -7 -7 -7 -7 -6 -6 -6 -7 -6 -5 -5 -5 -5 -6 -6 -7 -7 -7 -7 -7 -7 -7 -7 -8 -8 -8 -8 -8 -8 -8 -8 -8 -8 -8 -7
-8 -8 -8 -8 -8 -8 -8 -8 -8 -8 -8 -8 -8 -8 -8 -8 -8 -8 -8 -8 -8 -8 -8 -8 -8 -8 -8 -8 -8 -8 -8 -7 -7 -7 -7 -7 -7 -7 -7 -6 -6 -6 -6 -5 -5 -5 -5 -6 -6 -7 -7 -7 -7 -7 -7 -7 -7 -8 -7 -8 -8 -8 -8 -8 -8 -8 -8 -8 -8
-8 -8 -8 -8 -8 -8 -8 -8 -8 -8 -8 -8 -8 -8 -8 -8 -8 -8 -8 -8 -8 -8 -8 -8 -8 -8 -8 -8 -8 -8 -8 -7 -7 -7 -7 -7 -7 -7 -7 -6 -6 -6 -6 -5 -5 -5 -6 -6 -6 -6 -6 -6 -7 -7 -7 -7 -8 -8 -8 -8 -8 -8 -9 -9 -9 -9 -9 -9 -8
-8 -8 -8 -8 -8 -8 -8 -8 -8 -8 -8 -8 -8 -8 -8 -8 -8 -8 -8 -8 -8 -8 -8 -8 -8 -8 -8 -8 -8 -7 -7 -7 -7 -7 -7 -7 -7 -7 -7 -6 -6 -6 -6 -6 -5 -5 -5 -6 -6 -6 -7 -7 -7 -7 -7 -7 -8 -8 -8 -8 -8 -9 -9 -9 -9 -9 -9 -9 -9
-8 -8 -8 -8 -8 -8 -8 -8 -8 -8 -8 -8 -8 -8 -8 -8 -8 -8 -8 -8 -8 -8 -8 -8 -8 -8 -8 -8 -8 -7 -7 -7 -7 -7 -7 -7 -7 -7 -7 -7 -6 -6 -6 -6 -5 -5 -5 -6 -6 -7 -7 -7 -7 -7 -7 -7 -8 -8 -8 -9 -9 -9 -9 -9 -9 -9 -9 -9 -9
-8 -8 -8 -8 -8 -8 -8 -8 -8 -8 -8 -8 -8 -8 -8 -8 -8 -8 -8 -8 -8 -8 -8 -7 -7 -8 -8 -8 -8 -7 -7 -7 -7 -7 -7 -7 -7 -7 -7 -7 -7 -6 -6 -6 -6 -5 -5 -5 -6 -6 -7 -6 -7 -7 -7 -7 -8 -8 -9 -9 -9 -9 -9 -9 -9 -9 -9 -9 -9
-8 -8 -8 -8 -8 -8 -8 -8 -8 -8 -9 -8 -8 -8 -8 -8 -8 -8 -8 -8 -8 -7 -7 -7 -7 -7 -8 -8 -8 -7 -7 -7 -7 -7 -7 -7 -7 -7 -7 -7 -7 -7 -7 -6 -6 -5 -5 -5 -5 -6 -6 -6 -7 -7 -7 -7 -8 -8 -9 -9 -9 -10 -10 -9 -9 -9 -9 -9 -9
Height
881 879 878 877 876 875 873 872 871 870 868 866 865 863 861 859 858 856 854 852 850 848 846 844 842 840 838 836 834 832 830 829 827 825 824 821 819 818 816 814 813 811 809 808 807 805 804 803 801 800 798 797 795 794 793 792 791 789 788 787 786 785 784 782 781 780 779 778 777
881 880 879 878 877 875 874 872 871 870 868 867 865 864 862 860 858 856 854 852 850 848 846 844 842 839 838 835 834 832 830 828 826 824 822 820 818 817 815 813 811 810 808 807 805 804 802 801 800 798 797 795 794 793 792 790 789 788 787 786 784 784 782 781 780 779 778 777 776
881 879 879 877 876 875 874 873 871 870 868 867 865 864 862 860 858 856 854 852 850 848 846 844 841 839 837 835 834 832 830 828 825 823 821 819 817 815 813 812 810 808 807 805 804 803 801 800 798 797 795 794 793 791 790 789 788 787 786 784 783 782 781 780 779 778 777 776 775
881 880 879 877 876 875 874 873 871 870 868 867 865 863 862 860 858 856 854 852 849 848 846 844 841 839 837 835 833 831 829 827 824 822 820 818 815 814 812 810 809 807 805 804 802 801 799 798 797 795 794 793 791 790 789 787 786 785 784 783 782 781 780 779 778 777 776 775 774
881 880 879 878 877 875 874 873 871 869 868 866 864 863 861 859 858 855 854 851 849 847 845 844 841 839 837 835 832 830 828 825 823 821 818 816 814 812 810 809 807 805 804 802 801 799 798 797 795 794 792 791 789 788 787 786 785 784 783 782 781 780 779 779 777 776 775 774 773
881 880 879 878 877 875 874 873 871 869 868 866 864 863 861 859 857 855 853 851 849 847 845 843 841 839 836 834 831 829 826 824 821 819 817 814 812 810 808 807 805 803 802 800 799 797 796 795 794 792 790 789 788 786 785 784 784 783 782 781 780 779 779 778 776 775 774 773 772
881 880 879 878 876 875 874 872 870 869 867 865 864 862 860 859 857 855 853 851 849 847 845 843 841 838 835 833 830 827 825 822 819 817 815 813 810 808 806 804 803 801 799 798 796 795 794 793 791 790 789 787 786 784 784 783 782 781 780 779 779 778 777 776 775 774 773 772 771
881 880 879 878 876 875 874 872 870 868 867 865 864 862 860 858 856 854 853 851 849 847 845 843 840 837 834 832 829 826 823 820 818 815 813 811 809 806 804 802 800 799 797 796 794 793 792 790 789 788 786 785 784 783 781 781 781 780 779 778 777 776 776 775 774 773 772 771 769
881 880 879 878 876 875 873 872 870 868 867 865 864 862 860 858 856 854 852 851 849 847 845 842 839 836 834 831 828 825 822 819 816 814 812 809 807 804 802 800 798 796 794 793 792 790 789 788 786 785 784 783 782 780 779 779 779 778 777 776 775 775 774 774 773 772 771 769 768
881 880 879 878 876 875 873 871 870 869 867 865 864 862 860 858 856 854 852 851 849 847 844 841 839 835 833 830 827 824 821 818 815 813 810 807 805 802 800 798 796 794 792 790 789 787 786 785 784 782 781 780 779 778 778 777 777 776 775 775 774 774 773 772 771 770 769 768 767
881 880 879 878 876 874 873 871 870 868 867 865 863 861 859 857 855 854 852 850 849 846 844 841 838 835 832 829 826 823 820 817 814 811 808 805 803 800 798 796 794 791 789 787 786 784 783 781 780 779 779 778 778 777 776 775 775 774 774 773 773 772 771 770 769 769 769 768 766
882 881 879 878 876 874 873 871 870 868 867 865 863 861 859 857 855 854 852 850 848 845 843 840 837 834 832 829 825 823 819 816 813 809 806 803 801 798 796 794 791 789 786 784 783 781 780 778 777 776 776 776 776 775 774 774 774 773 773 772 771 771 770 769 768 768 768 767 765
882 881 879 878 876 875 873 872 870 868 866 864 863 861 859 857 855 853 851 849 847 845 842 839 837 834 831 828 825 822 819 815 811 808 804 801 799 796 794 791 789 786 783 781 779 778 777 775 774 774 774 774 774 773 773 773 772 772 771 770 770 769 769 768 767 767 766 766 765
883 881 880 878 876 875 873 872 870 868 866 864 862 860 859 856 854 853 851 849 847 844 842 839 836 834 831 828 824 821 818 814 810 806 802 799 797 794 792 789 786 783 780 777 775 774 773 772 771 771 771 771 771 771 771 771 771 770 769 769 769 768 768 767 766 766 765 765 764
883 881 880 878 877 875 874 872 870 868 866 864 862 860 858 856 854 853 851 849 847 844 842 839 836 833 830 827 824 821 817 813 809 804 801 797 794 792 789 786 783 779 776 772 770 769 768 768 769 769 769 769 769 769 769 769 769 769 769 768 768 768 767 766 765 765 765 765 765
883 881 880 878 877 875 874 872 870 868 866 864 862 860 858 856 854 853 851 849 847 844 841 839 835 832 829 826 824 820 816 812 808 804 800 796 792 789 786 782 779 775 772 768 765 764 764 764 765 766 767 767 768 768 768 768 768 768 768 768 767 767 766 765 765 765 765 765 765
883 882 880 878 877 875 874 872 870 868 866 864 862 860 858 856 854 852 851 849 846 844 841 838 835 832 829 826 823 820 816 812 808 804 799 795 792 788 784 780 776 772 768 764 762 760 761 762 763 764 765 766 766 766 767 767 767 767 767 767 767 766 766 765 765 765 765 765 765
883 882 880 878 877 875 874 872 870 868 866 864 862 860 858 856 854 852 851 849 846 844 840 838 835 832 829 826 823 820 816 812 809 804 800 795 792 789 784 780 775 771 767 764 762 761 761 762 762 764 764 765 766 766 767 767 767 767 767 767 767 767 767 767 766 766 766 765 764
883 882 880 878 877 875 874 872 870 868 866 864 862 860 858 856 854 852 850 849 846 844 840 838 835 832 829 826 823 820 817 813 810 806 801 797 793 789 786 781 777 774 771 768 765 764 764 764 764 765 766 767 767 768 768 768 768 768 768 769 769 768 768 768 767 767 766 765 764
883 882 880 878 877 875 874 872 870 868 866 864 862 860 858 856 854 852 851 849 846 844 841 838 835 832 829 826 823 820 817 814 811 808 803 799 794 790 787 784 781 779 777 772 770 769 768 768 768 769 769 769 769 770 770 770 770 770 770 769 769 769 768 768 767 766 766 765 764
883 882 880 879 877 875 874 872 870 868 866 864 862 860 858 856 854 853 851 849 847 844 841 838 835 833 830 827 824 821 818 816 813 810 806 802 797 793 789 787 785 784 781 777 775 774 773 772 772 772 772 772 772 772 772 771 771 771 770 770 769 769 769 768 767 767 766 765 764
883 882 880 879 877 875 874 872 870 868 866 864 862 860 858 856 854 853 851 849 847 844 841 839 836 833 830 828 825 822 819 817 814 811 808 805 801 796 792 789 788 787 785 782 780 779 778 777 776 775 775 774 774 773 773 773 772 772 772 771 771 770 770 769 769 768 767 765 764
883 882 880 879 877 876 874 872 870 868 866 864 862 860 858 856 855 853 852 849 847 844 842 839 837 834 831 829 826 823 820 818 815 813 810 807 804 800 796 792 790 789 788 786 785 784 782 781 780 779 778 777 777 776 776 776 775 775 774 774 773 773 772 771 770 769 768 766 765
883 882 880 879 877 875 874 872 870 868 866 864 862 860 859 857 855 854 852 849 847 845 842 840 837 835 832 829 826 824 822 819 816 814 811 808 806 803 799 796 794 792 791 790 789 788 787 785 784 783 782 781 780 780 779 779 778 778 777 776 776 775 774 773 771 770 769 767 766
883 882 880 879 877 875 874 871 869 868 866 864 862 860 859 857 855 854 852 850 848 845 843 841 838 835 833 830 827 825 823 820 818 816 813 810 808 805 803 800 798 796 795 793 792 791 790 789 788 786 785 784 784 783 782 781 781 780 779 779 778 777 775 774 773 771 770 768 767
883 882 880 879 877 875 873 871 870 868 866 864 863 861 859 858 856 854 852 850 848 846 844 841 839 836 834 831 828 825 823 821 820 818 815 813 810 808 805 803 801 800 799 797 795 794 793 792 791 789 788 787 786 785 784 784 783 782 781 780 779 779 777 776 774 773 771 769 768
883 881 880 879 877 875 873 872 870 868 867 865 863 861 859 858 856 854 852 850 849 847 844 842 840 838 835 832 829 827 825 823 821 819 817 815 813 810 808 806 804 803 802 800 799 797 796 794 794 792 791 789 788 787 787 786 785 784 783 782 781 780 779 778 776 774 773 771 769
883 882 880 879 877 875 874 872 870 869 867 865 863 861 859 858 856 854 853 851 849 847 845 843 841 839 836 834 831 829 826 824 822 821 819 817 815 813 810 808 807 806 805 803 801 799 798 797 796 794 793 791 790 789 788 787 786 785 784 783 782 781 780 779 777 776 774 772 771
883 882 880 879 877 875 874 872 870 869 867 865 864 862 860 858 856 854 853 851 849 848 846 844 842 840 837 835 833 830 828 826 824 822 820 819 817 815 813 810 809 808 808 805 803 801 800 799 797 796 795 793 792 791 790 789 788 787 786 784 784 782 781 780 779 777 775 773 772
883 882 880 879 877 875 874 872 871 869 867 865 864 862 860 858 856 854 853 851 850 849 847 845 843 841 839 837 834 832 829 827 825 824 822 820 819 817 815 813 811 810 809 807 805 803 802 800 799 798 796 795 793 792 791 790 789 788 787 786 785 784 782 780 779 778 776 774 772
883 882 880 879 877 875 874 872 871 869 867 865 864 862 860 858 856 854 853 852 850 849 848 846 844 842 840 838 836 834 831 829 827 825 823 822 820 819 817 814 812 811 811 808 807 805 804 802 801 799 798 797 795 794 792 791 790 789 788 787 786 784 783 781 780 778 776 774 773
883 882 880 879 877 875 874 872 871 869 867 865 864 862 860 858 857 855 854 852 851 849 848 846 844 843 840 839 836 834 832 830 828 826 825 823 822 820 818 816 813 812 812 810 808 806 805 804 803 801 800 798 796 795 794 793 791 790 789 788 787 785 784 782 780 779 777 775 773
883 882 880 879 877 875 874 872 871 869 867 865 864 862 860 859 857 855 854 852 851 849 848 846 845 843 841 839 837 835 834 832 830 828 826 824 823 821 819 817 814 814 813 811 809 808 806 805 804 803 801 800 798 796 795 794 793 791 790 789 788 786 785 783 782 780 778 776 774
883 881 880 879 877 875 874 872 871 869 867 865 864 862 861 859 857 855 854 852 851 849 848 847 845 844 842 840 839 837 835 833 831 829 827 825 824 822 820 819 816 815 814 812 810 809 807 806 805 804 802 801 799 797 796 794 793 792 791 790 789 787 786 784 783 781 779 778 776
883 881 880 879 877 875 874 872 871 869 867 866 864 862 861 859 858 856 854 853 851 850 848 847 845 844 843 841 839 838 836 834 832 830 829 827 825 823 821 819 818 816 815 813 811 809 808 807 806 804 803 801 799 798 797 795 794 793 792 790 789 788 786 785 784 782 781 779 778
883 881 880 879 877 875 874 872 871 869 867 866 864 863 861 859 858 857 855 854 852 850 848 847 846 844 843 841 839 838 837 835 833 831 830 828 826 824 823 820 818 817 815 814 812 810 809 808 807 805 804 802 800 799 797 796 795 794 792 791 790 789 788 786 785 784 782 781 779
883 881 880 879 877 875 874 872 871 869 867 866 864 863 861 860 858 857 855 854 852 850 849 847 846 844 843 842 840 839 838 836 834 833 831 829 828 826 824 822 819 817 816 815 813 811 809 809 807 806 804 803 801 800 799 797 796 794 793 792 791 790 789 788 787 785 784 783 781
882 881 880 878 877 875 874 872 871 869 867 866 864 863 862 860 859 857 856 854 852 851 849 848 846 845 844 842 841 839 838 837 835 834 832 830 829 827 826 823 821 819 817 816 814 813 811 809 808 806 805 804 802 801 800 799 797 796 795 794 793 791 790 789 788 787 785 784 783
882 881 880 878 877 875 874 872 871 869 868 866 864 863 862 860 859 857 856 854 853 851 850 848 847 845 844 843 841 840 838 837 836 834 833 831 830 829 827 825 823 820 819 817 815 813 812 810 809 807 805 804 803 802 801 800 799 798 796 795 794 793 791 790 789 788 786 785 784
882 881 879 878 877 875 874 872 871 869 868 866 864 863 862 860 859 858 856 854 853 852 850 849 847 846 844 843 842 840 839 837 836 835 833 832 830 829 828 826 824 822 820 819 817 814 813 811 809 808 806 805 804 803 802 801 800 799 797 796 795 793 792 791 790 789 787 786 784
882 881 879 878 877 875 874 872 870 869 868 866 864 863 862 860 859 858 856 854 853 852 850 849 847 846 845 844 842 840 839 837 836 835 834 832 831 830 829 827 825 823 821 819 818 816 814 812 810 809 807 805 804 804 803 802 800 799 798 797 796 794 793 791 790 789 788 786 784
Wind_Speed
26 25 23 20 20 20 19 18 18 19 19 20 20 20 20 21 21 21 21 22 22 22 23 24 24 26 27 28 28 28 28 29 29 29 29 29 29 29 29 28 27 27 27 26 26 26 25 24 24 23 23 22 22 21 21 20 21 22 23 23 23 23 23 23 23 22 22 22 21
27 26 23 21 21 20 19 18 19 20 20 20 20 20 20 21 21 21 22 22 23 23 24 25 26 27 28 28 28 28 29 29 30 30 30 30 29 29 29 28 28 27 27 26 26 25 25 24 24 23 23 22 21 21 22 21 22 23 23 23 23 23 22 21 21 21 20 20 20
27 26 24 22 22 21 20 19 20 21 22 21 20 20 20 21 22 22 22 23 24 25 25 25 26 27 28 28 28 29 29 30 30 30 30 29 29 29 29 29 28 28 27 26 26 25 25 25 24 23 23 22 21 22 23 23 23 22 22 23 22 21 20 19 19 19 19 19 20
27 26 24 22 22 22 21 20 22 23 22 21 21 21 21 22 22 22 23 24 25 25 25 26 26 27 27 28 29 30 30 30 30 30 30 30 30 30 30 29 29 28 28 27 26 26 25 25 24 23 22 22 22 22 22 22 22 22 22 21 21 20 19 19 19 20 20 20 20
27 25 23 21 22 22 21 22 23 24 23 22 21 22 23 23 23 23 24 25 25 25 25 26 26 26 27 29 30 31 31 31 30 30 30 30 30 30 30 30 29 28 28 27 26 26 25 25 23 22 21 21 21 21 22 22 22 22 22 21 20 19 19 19 20 20 20 20 21
26 25 23 22 22 23 23 24 25 26 24 22 23 24 25 25 24 25 25 25 25 26 26 26 26 27 29 30 31 32 32 31 31 31 30 31 31 31 30 30 29 28 27 27 26 26 25 24 23 22 22 21 21 21 22 22 21 21 21 21 20 20 20 20 20 21 21 21 22
25 24 23 23 23 23 24 26 26 25 24 23 24 25 26 26 25 25 25 25 25 26 26 26 27 29 31 32 32 32 32 32 31 31 31 30 31 31 31 30 29 29 28 27 27 26 25 24 23 23 23 22 21 21 21 21 21 21 21 21 21 21 21 21 21 21 21 22 23
24 24 23 23 23 23 24 26 25 25 24 23 24 25 26 26 25 25 26 25 25 26 27 28 30 31 32 32 33 33 33 32 32 32 32 31 31 31 31 30 30 29 28 27 26 26 25 24 23 22 22 22 21 21 21 21 21 22 23 23 23 22 21 21 21 21 22 23 24
24 24 23 23 23 23 24 25 25 24 23 24 24 25 25 25 25 25 26 25 26 27 29 30 31 32 33 33 33 33 33 33 33 33 33 32 32 32 31 31 30 29 29 28 27 27 26 25 23 22 22 22 22 22 23 23 23 24 24 24 23 22 22 22 22 22 23 24 25
24 23 23 23 24 24 24 25 23 22 22 23 24 25 25 24 25 26 26 26 28 29 30 31 32 33 33 33 33 33 33 33 33 33 34 34 33 33 32 31 31 30 30 29 28 27 26 25 23 23 23 23 23 24 25 25 24 24 24 23 22 22 22 23 23 23 23 23 24
24 23 22 23 24 24 24 24 23 22 22 23 24 25 25 25 26 27 27 28 29 30 31 32 32 33 33 33 33 34 34 34 34 34 34 34 34 33 33 32 32 32 31 30 29 28 26 25 24 24 24 23 23 24 24 24 24 24 23 23 23 23 23 24 23 23 22 22 23
23 22 22 23 24 24 24 23 22 22 22 23 25 25 26 27 28 28 29 30 30 31 31 32 32 33 33 33 33 34 34 35 35 35 35 34 34 33 33 33 33 33 33 32 30 29 27 26 26 25 25 24 24 24 23 23 23 23 23 24 24 23 23 23 23 22 22 22 22
21 21 22 24 24 24 23 23 22 22 23 24 25 26 27 28 29 29 30 31 31 31 31 32 32 32 32 33 34 35 35 35 36 36 35 35 34 33 33 33 33 34 34 33 32 30 29 28 27 27 26 25 24 24 24 23 23 23 24 24 24 23 23 23 23 22 22 21 20
21 21 23 24 24 24 23 23 23 23 24 25 26 27 28 29 30 30 30 31 31 31 32 32 33 32 33 33 34 35 35 36 37 37 37 36 35 35 34 34 34 35 36 35 34 33 31 29 28 27 26 25 24 24 24 23 23 23 23 23 23 22 22 23 22 20 19 17 15
21 22 23 24 24 24 24 24 24 24 25 26 28 28 29 30 30 31 31 31 31 32 32 33 33 34 34 34 35 35 36 36 37 37 38 38 38 37 37 37 37 37 37 38 37 35 33 30 28 26 25 24 24 23 23 22 21 21 21 21 21 21 21 20 18 15 13 11 11
22 22 23 24 24 24 25 25 24 25 26 27 29 29 30 30 31 31 32 32 32 32 33 34 34 35 35 35 35 35 36 37 38 39 39 40 41 41 41 40 40 39 38 37 35 33 30 27 25 23 22 21 20 20 19 18 18 18 18 19 19 18 17 14 11 9 7 7 9
22 23 24 24 25 25 26 26 26 26 27 28 29 30 30 31 31 32 32 32 33 33 34 35 35 35 35 36 36 36 37 38 39 40 41 42 43 43 43 43 43 40 36 30 25 21 19 17 15 15 15 14 14 14 14 14 14 15 15 15 14 12 11 9 8 6 5 6 9
23 24 24 25 26 26 27 27 27 27 28 29 30 30 31 32 32 33 33 33 34 34 35 36 36 35 35 36 37 37 37 38 39 41 43 44 44 44 44 45 44 40 34 31 27 23 19 15 11 9 7 7 7 8 9 10 11 11 11 11 11 11 13 13 13 11 9 9 9
24 25 25 26 26 27 27 27 28 28 28 29 30 31 31 32 33 33 34 34 34 35 36 36 36 35 36 36 37 37 38 38 40 42 44 46 46 46 46 45 42 38 38 40 40 37 33 29 25 21 18 15 13 12 12 12 12 12 13 15 18 20 22 22 22 21 19 18 16
25 25 26 26 26 27 27 27 27 27 28 29 30 31 32 33 33 33 34 34 35 35 36 36 36 36 36 36 37 38 38 38 39 41 44 46 47 47 46 44 38 36 39 43 43 42 40 39 36 33 30 26 23 21 20 20 21 21 22 24 26 28 27 27 27 27 26 25 24
26 26 26 26 26 27 27 26 27 27 28 29 30 31 32 33 33 33 34 34 35 35 35 35 35 35 35 36 36 37 38 38 39 40 42 44 46 47 46 42 35 34 39 43 43 42 40 39 38 36 35 33 32 30 29 28 28 28 28 28 29 29 29 28 29 29 29 29 28
26 26 25 25 26 26 26 26 26 27 28 29 30 31 32 33 33 34 34 34 34 34 34 34 34 34 34 35 35 36 37 38 39 39 41 42 44 45 45 42 36 34 36 40 41 41 39 38 37 36 36 35 36 35 33 32 31 30 29 29 28 28 28 28 28 28 29 29 30
26 25 25 25 25 26 26 26 27 28 29 29 30 31 32 33 33 34 34 34 34 33 33 33 34 34 34 34 35 36 36 37 38 39 40 41 42 42 43 42 38 34 34 36 37 38 38 37 36 36 36 35 35 35 33 32 31 30 29 28 27 27 27 27 27 28 28 29 30
26 25 24 24 25 25 26 26 27 28 29 30 30 31 32 33 33 34 34 34 33 33 32 33 33 33 33 33 34 35 36 36 37 39 40 41 40 40 40 40 38 37 35 34 34 34 34 34 34 34 33 33 32 32 31 31 30 29 29 28 27 27 26 26 26 27 27 28 29
25 24 24 24 24 25 26 26 27 28 29 30 30 31 32 32 33 33 33 33 32 31 31 32 33 33 32 33 34 35 35 35 36 37 39 39 39 38 38 37 36 35 35 35 33 32 30 30 30 31 31 31 30 30 30 30 30 30 29 28 28 27 27 27 26 26 27 28 29
24 24 23 23 24 25 26 26 27 28 29 30 30 31 32 32 32 32 32 32 31 30 30 31 32 32 31 32 33 34 35 35 35 36 36 37 38 37 36 35 33 32 33 33 32 31 29 29 28 28 29 29 29 28 28 29 30 30 29 29 28 28 28 28 27 26 26 26 28
24 23 23 23 24 25 26 26 27 28 29 30 31 31 32 32 32 32 32 31 30 29 29 31 31 30 30 30 32 34 34 35 34 34 35 36 36 36 35 33 31 30 31 31 31 30 29 28 27 26 27 28 28 27 27 27 28 29 29 29 28 28 28 27 27 27 26 25 26
23 23 23 23 24 25 25 26 27 28 29 30 30 31 31 32 32 32 31 30 29 28 28 30 30 30 30 30 31 32 33 34 33 33 34 34 34 34 34 32 30 29 30 31 31 30 29 28 27 26 26 27 27 27 27 26 26 27 28 28 28 28 28 27 26 26 26 25 24
23 23 23 23 24 24 25 26 27 28 29 30 30 31 31 31 32 32 31 30 29 27 27 29 29 30 30 30 30 31 32 33 33 33 33 34 33 33 33 32 29 27 28 31 32 31 31 30 29 27 27 27 27 27 27 27 26 26 27 28 29 28 27 27 27 27 27 25 23
23 23 23 23 23 24 25 26 27 28 29 29 30 31 31 31 32 31 30 29 28 27 27 28 29 29 29 28 28 29 30 31 32 32 33 33 33 32 32 32 29 26 27 30 31 32 32 31 30 29 29 29 29 28 28 28 27 27 27 27 29 29 28 28 28 28 29 28 24
23 23 23 23 23 24 25 26 27 28 29 29 30 30 31 31 31 31 30 28 27 27 27 27 28 28 28 27 27 28 29 30 31 31 31 32 32 32 31 31 30 26 26 28 29 31 31 31 31 30 30 31 31 30 29 28 28 27 27 28 29 29 29 28 29 30 30 31 27
23 23 23 23 24 24 24 26 27 28 28 29 29 30 30 30 30 30 29 27 27 27 27 27 28 28 27 26 26 26 27 28 29 30 30 31 31 31 31 31 31 28 25 25 27 29 30 30 30 30 30 32 32 31 30 29 28 28 28 28 28 29 29 29 30 30 32 32 30
23 23 23 23 23 24 24 25 27 27 28 28 29 29 29 30 30 30 29 27 27 27 27 27 27 27 26 25 25 25 26 27 27 28 29 30 30 31 31 31 31 29 26 24 24 26 28 29 29 30 30 32 33 32 31 30 29 28 28 28 28 28 28 29 29 30 31 32 32
22 22 22 22 23 23 24 25 26 27 27 28 28 28 28 29 29 29 29 27 27 27 26 26 26 26 25 24 23 23 24 25 26 27 28 29 29 30 31 31 31 30 27 26 23 24 26 27 28 29 31 32 33 33 32 31 30 29 28 28 28 28 28 28 28 29 29 30 32
22 22 22 22 22 23 24 25 26 26 27 27 27 27 27 28 28 28 28 27 27 26 26 25 25 25 24 22 21 22 22 23 24 25 26 27 28 29 30 31 31 30 29 29 25 23 23 25 27 29 31 33 34 33 33 32 31 30 29 28 28 28 28 28 28 28 28 28 30
21 21 21 21 22 23 24 25 26 26 26 26 26 26 26 27 27 27 27 26 26 26 25 24 24 24 24 22 21 21 20 21 22 23 24 25 26 27 29 30 31 30 30 31 28 24 22 23 25 28 31 33 34 34 33 32 31 30 29 28 27 27 27 27 27 27 27 27 27
20 20 20 21 22 23 24 25 25 26 26 26 25 25 25 25 26 26 26 25 26 26 25 24 24 24 24 23 21 20 19 19 20 21 22 23 24 25 27 28 29 30 30 30 30 27 23 22 23 26 30 32 33 33 33 32 31 30 29 27 26 25 25 25 26 26 26 26 25
20 20 20 21 22 23 24 24 25 25 25 25 24 23 23 24 25 25 25 25 26 25 24 23 23 23 23 22 21 19 17 17 17 19 20 21 22 23 24 26 27 28 29 29 30 29 26 22 21 24 28 30 31 31 31 31 31 30 28 26 24 23 22 22 23 24 24 24 23
20 20 20 21 21 22 23 24 24 25 25 24 23 22 22 23 24 24 25 25 25 24 23 22 22 22 22 22 21 19 17 16 16 17 18 19 20 20 22 24 25 26 27 27 28 30 29 26 22 22 24 27 29 29 30 30 30 29 27 25 23 22 21 20 21 22 22 23 22
20 21 21 21 21 22 23 23 24 24 24 23 22 21 21 22 23 23 24 24 24 23 22 21 21 21 21 21 21 20 19 17 16 16 16 17 18 19 20 22 23 24 24 25 26 28 29 29 25 22 22 25 26 27 28 28 28 28 27 24 23 21 21 20 20 20 21 21 21
21 21 21 21 21 22 22 23 23 23 23 22 20 19 19 20 21 22 23 23 23 22 21 20 20 21 21 21 21 21 20 19 17 16 16 16 17 18 19 20 21 22 22 23 24 25 26 28 27 25 22 22 24 25 26 26 27 27 26 25 23 21 21 20 20 20 20 20 21
Wind_Direction
360 359 357 354 352 349 347 345 345 344 342 339 337 337 336 334 332 331 330 329 327 325 323 322 322 321 321 321 322 323 324 324 324 322 321 319 318 317 315 314 313 312 311 310 309 308 307 307 306 305 304 303 301 301 300 299 298 297 296 295 294 294 295 295 295 295 296 295 295
359 358 357 355 353 351 349 347 345 344 342 340 338 336 335 335 332 330 328 328 326 325 324 323 323 322 322 323 324 325 325 324 323 322 320 319 318 317 316 314 313 312 311 310 309 308 307 306 305 304 304 302 301 301 300 298 297 296 295 294 294 294 294 294 294 295 297 298 298
358 357 356 355 353 351 349 347 344 342 340 339 337 335 334 333 332 330 328 327 327 326 325 324 324 324 325 325 325 325 324 323 322 320 319 318 317 317 316 314 313 312 311 310 309 307 306 305 304 303 303 302 300 299 298 297 296 294 294 294 294 295 295 294 295 297 299 300 300
358 357 355 353 351 350 347 344 342 340 339 337 336 334 333 332 330 329 329 327 328 328 327 325 325 326 326 326 325 324 323 322 321 320 318 318 317 316 315 314 313 312 311 310 308 307 305 305 304 302 301 300 298 296 295 295 295 294 293 294 294 295 295 296 297 300 301 301 301
357 356 353 350 349 347 345 343 341 340 339 336 335 335 334 333 332 331 331 331 329 328 328 328 326 327 327 325 324 322 322 321 320 319 317 315 315 315 315 314 313 311 310 309 307 306 305 304 302 300 299 297 295 294 293 293 293 294 294 294 295 295 296 297 299 300 301 301 300
355 354 351 349 348 346 344 343 343 342 340 338 337 337 337 335 334 333 332 331 330 330 330 330 329 328 326 323 322 322 321 319 319 317 315 316 315 315 314 313 312 310 309 307 306 305 304 303 301 300 298 296 294 292 291 292 292 292 292 293 294 295 296 297 298 299 299 298 297
355 352 351 350 348 345 344 344 345 344 343 340 339 340 339 338 335 333 332 331 331 332 332 331 329 327 325 323 322 321 320 319 317 316 315 314 314 314 313 312 311 309 307 305 305 304 303 302 299 298 297 295 292 291 290 290 289 290 290 292 294 294 294 295 296 297 297 296 295
355 353 352 350 348 345 345 346 347 346 344 342 341 341 341 339 337 335 333 333 333 333 332 331 329 326 324 323 323 322 320 318 317 317 316 314 313 313 312 311 309 308 306 304 303 301 300 299 296 293 292 292 291 290 289 288 288 288 289 290 292 293 293 294 295 296 296 295 294
356 354 352 351 349 347 347 348 348 347 345 344 343 342 341 338 336 335 334 334 334 333 332 330 328 326 325 325 323 322 320 320 319 318 317 316 314 312 311 311 309 307 306 305 302 300 299 297 293 290 288 289 289 288 288 289 289 289 290 291 292 293 294 295 295 295 294 294 294
357 354 352 351 350 349 349 350 349 347 346 345 344 342 340 338 336 335 335 334 334 333 332 331 329 328 327 326 325 324 322 321 320 318 318 317 315 314 312 311 309 307 306 304 302 300 298 295 291 288 287 286 286 287 288 289 290 290 291 292 292 294 294 295 294 294 294 294 295
357 354 352 351 351 351 351 350 349 347 346 345 343 342 340 338 337 336 335 334 334 334 333 332 330 329 329 327 326 326 325 323 321 319 318 317 316 314 313 312 310 308 306 304 302 300 297 293 291 290 288 286 286 287 289 290 290 290 290 292 293 294 294 295 295 295 295 296 296
356 354 353 352 352 352 352 351 349 348 347 345 343 341 339 337 337 336 336 336 335 334 334 334 332 331 330 329 328 327 326 324 322 320 318 316 316 315 313 313 311 308 306 304 302 300 297 293 290 289 289 289 289 288 289 290 291 291 292 293 294 293 293 294 296 298 298 299 299
355 354 353 354 354 353 352 351 349 348 346 344 343 341 339 338 337 337 337 337 336 336 336 335 334 332 331 330 330 329 328 326 324 321 319 317 317 315 314 312 311 308 306 304 301 298 294 291 289 288 288 289 289 289 289 290 291 291 291 292 293 293 293 295 298 300 302 304 306
355 354 354 355 355 354 352 351 349 347 345 343 342 341 340 339 339 339 339 338 338 338 337 336 335 334 333 331 331 330 329 327 325 323 321 320 319 317 315 312 310 307 305 302 299 295 292 289 287 287 286 286 287 288 289 289 289 289 289 290 292 294 296 299 303 306 310 314 322
355 354 354 355 354 353 352 350 348 346 344 342 341 341 340 340 340 340 340 339 340 340 339 337 337 336 335 334 333 332 331 330 328 325 324 323 322 320 317 314 311 308 305 301 298 295 291 288 286 285 284 284 285 287 288 289 289 289 290 292 294 296 300 304 311 317 325 337 351
355 354 354 354 353 352 351 349 347 345 343 342 342 341 341 341 341 342 342 341 342 342 341 339 338 337 337 337 337 335 333 332 331 329 327 326 325 324 322 320 318 315 311 306 302 298 295 291 288 285 284 284 285 287 289 291 293 294 296 298 300 303 307 314 323 338 359 18 24
355 354 353 352 352 351 349 348 346 344 343 343 342 342 342 342 343 344 345 345 344 343 342 341 341 339 338 339 339 338 336 335 333 332 331 330 329 330 330 330 330 330 329 328 325 321 317 312 304 296 291 290 291 294 297 300 302 304 307 311 315 323 334 344 353 11 31 36 29
355 353 352 351 351 349 348 348 346 345 344 343 343 344 345 345 345 346 347 348 347 344 343 343 343 342 341 341 341 341 339 337 336 336 336 335 336 338 340 342 345 352 4 17 25 29 30 28 22 11 357 345 337 333 331 330 328 330 337 347 1 18 29 31 30 29 25 14 6
354 353 352 351 349 349 349 348 347 346 345 344 345 346 347 348 348 349 350 350 349 347 345 344 344 344 344 343 343 343 342 340 340 341 342 342 344 347 349 352 358 13 29 37 43 47 50 51 51 50 48 45 39 33 27 24 22 25 31 36 41 44 44 41 36 32 25 16 7
354 353 352 351 349 349 350 349 348 347 346 346 347 348 350 351 351 351 351 351 351 350 348 346 346 345 346 346 345 345 344 344 345 346 347 349 351 353 355 358 8 24 35 39 43 46 49 51 52 52 52 51 51 49 48 47 47 47 47 46 45 43 41 37 34 30 25 20 15
355 353 351 350 350 351 350 350 348 348 348 348 349 351 352 352 353 353 353 352 352 351 350 349 347 347 347 347 346 346 346 347 348 350 352 354 355 356 358 2 15 31 38 39 41 44 46 48 49 50 50 51 52 52 51 50 49 48 47 45 43 40 38 35 32 28 25 21 18
354 354 352 351 352 352 351 351 350 349 350 351 352 353 353 353 354 354 354 354 354 353 351 350 349 349 349 348 348 348 349 350 352 354 356 358 359 0 2 4 18 34 41 40 40 42 44 45 45 46 47 49 50 51 51 50 49 47 46 44 42 40 37 35 32 29 25 21 18
355 355 354 353 353 353 353 352 351 352 352 353 354 354 354 354 355 355 355 356 356 355 353 351 351 350 350 351 351 351 351 353 355 358 360 1 2 4 5 7 14 27 38 42 41 41 42 43 44 45 46 47 48 49 50 49 48 46 44 41 39 37 35 33 31 28 25 21 18
357 356 355 353 354 355 354 353 353 353 353 354 354 354 354 354 355 355 356 357 357 356 354 353 352 352 353 353 353 354 354 355 357 360 2 3 4 6 9 12 14 20 29 37 41 41 41 42 42 44 44 45 46 46 46 46 44 42 40 37 34 32 31 31 30 27 24 20 16
358 357 356 356 355 355 355 354 354 354 354 354 354 354 354 355 355 356 356 357 358 357 355 354 354 354 354 355 356 357 357 358 360 1 2 3 6 9 11 13 16 20 25 30 36 40 41 40 40 40 42 42 42 41 41 41 39 37 35 33 30 28 27 27 26 25 22 19 16
359 358 357 356 356 356 355 355 355 354 354 354 354 354 354 354 355 356 357 358 358 357 356 355 356 356 356 356 358 359 360 1 1 2 3 3 5 8 10 12 16 21 26 29 32 35 38 38 38 38 38 39 38 37 35 35 34 33 32 30 27 24 22 21 20 20 20 19 16
359 357 356 356 356 356 355 355 355 355 355 354 354 353 353 354 355 356 357 358 359 358 357 356 357 357 357 358 359 359 0 1 2 3 4 4 5 6 9 13 17 22 28 31 33 34 35 36 36 36 36 36 36 34 32 30 29 29 28 27 24 22 20 17 15 14 14 16 15
358 357 356 357 356 355 355 355 355 355 354 354 353 353 353 354 355 356 357 358 359 359 358 357 357 359 360 0 0 0 1 3 3 4 5 6 6 6 7 10 16 24 30 34 36 36 36 36 36 36 35 35 36 34 32 30 28 27 26 24 22 20 18 15 13 11 10 11 12
358 358 357 356 355 355 355 355 354 354 354 354 354 354 354 354 355 357 357 358 358 358 357 356 358 360 2 2 2 2 3 4 4 5 5 6 7 7 7 8 13 23 32 36 38 39 38 38 37 37 36 36 36 35 33 30 28 26 24 22 20 18 16 15 13 11 9 7 8
358 357 356 355 354 354 354 354 353 353 354 354 354 354 354 355 356 357 357 357 357 356 356 356 358 0 2 3 4 4 5 5 6 7 7 7 6 6 5 6 11 23 36 39 40 40 39 39 38 37 36 36 36 36 34 32 29 27 24 22 20 18 16 14 13 11 9 6 5
359 357 355 354 354 353 353 352 353 353 354 355 355 355 355 355 356 356 356 356 355 355 356 358 359 0 3 5 6 6 6 7 8 8 7 7 6 5 4 4 7 20 36 41 41 41 40 39 38 36 35 35 36 36 35 33 30 28 25 23 21 19 17 15 13 11 10 8 4
359 357 356 354 353 352 352 352 353 354 355 356 356 356 356 356 356 356 356 356 354 354 356 357 359 360 2 5 6 8 8 9 9 9 9 8 7 6 5 3 4 14 30 39 42 41 41 39 37 36 35 34 34 34 34 33 31 29 26 24 22 20 18 16 14 13 12 10 5
359 357 356 354 353 352 351 352 353 355 355 356 356 357 356 356 356 357 357 356 354 354 355 357 358 359 360 2 5 7 8 10 10 11 11 10 9 7 6 4 3 9 21 34 41 42 41 39 37 35 34 32 32 32 32 31 30 29 27 25 23 21 20 18 16 15 13 12 7
358 357 356 355 353 352 352 353 354 355 356 356 357 357 357 357 356 356 355 354 353 354 356 358 358 358 360 2 4 6 8 10 12 13 12 11 10 8 7 6 5 6 13 28 40 43 40 39 37 34 32 31 30 30 29 29 28 27 26 24 23 21 20 19 17 16 15 13 8
358 356 355 355 353 353 353 354 355 356 356 356 356 357 357 357 356 355 354 353 353 355 358 360 360 360 360 2 5 7 9 10 12 13 12 11 10 8 7 8 7 4 8 23 37 42 40 38 35 32 30 29 28 28 27 27 26 25 25 23 22 20 18 17 16 16 15 13 8
359 356 355 354 353 353 353 354 355 355 355 355 356 356 356 356 356 355 354 353 354 356 358 360 0 360 359 359 2 6 9 10 12 13 13 12 9 7 6 8 9 5 6 18 30 38 40 37 34 31 28 27 26 26 25 25 24 23 23 22 21 18 16 13 12 12 13 11 6
359 357 354 352 352 352 353 354 355 354 354 354 355 355 355 355 355 355 355 354 354 356 357 359 359 359 358 357 358 2 7 10 12 13 13 13 10 6 5 8 10 7 5 9 20 30 38 37 35 31 28 26 24 24 23 23 22 22 21 21 19 18 14 10 8 7 8 7 3
359 356 353 351 350 351 353 354 354 353 353 352 354 355 355 355 354 354 355 355 355 355 356 358 359 358 357 355 356 360 5 9 11 12 13 13 11 5 3 6 10 9 5 2 10 21 30 35 36 33 29 26 24 23 22 22 21 20 20 19 18 16 14 9 5 3 3 2 360
357 355 353 351 350 351 352 353 353 352 351 351 353 354 355 355 354 354 355 357 357 356 356 357 358 358 358 356 357 359 3 5 8 10 12 13 11 6 4 6 9 10 6 1 3 10 20 28 34 34 30 27 24 22 21 21 21 20 19 17 15 14 13 9 4 1 359 359 359
357 356 354 352 351 351 352 353 352 352 351 351 352 353 354 354 354 356 358 359 359 359 358 357 358 358 359 358 358 359 1 1 2 5 8 10 11 9 7 8 8 9 7 2 359 3 11 19 27 32 31 27 24 21 20 19 20 20 19 17 14 11 9 8 4 1 359 358 357
358 357 355 354 353 353 353 352 352 351 351 352 353 354 355 355 356 359 0 1 1 359 358 357 357 358 359 359 359 359 360 360 359 359 1 4 8 10 10 8 7 7 5 2 358 359 4 11 18 25 29 27 24 21 19 18 19 19 18 16 14 11 8 5 3 1 359 358 357